This is the latest recevied weather packets stored in our database for station/object N6GPM. If no packets are shown the sender has not sent any weather packets the latest 10 day(s).
| Time | Temp. | Humidity | Pressure | Rain* | Wind** | Luminosity | Snow |
|---|---|---|---|---|---|---|---|
| 1788295562 | 29.44° C | 26% | 1018.9 hPa | 0 mm | - | 950 W/m² | - |
| 1788295257 | 29.44° C | 26% | 1018.7 hPa | 0 mm | - | 956 W/m² | - |
| 1788294956 | 29.44° C | 27% | 1018.9 hPa | 0 mm | - | 960 W/m² | - |
| 1788294651 | 29.44° C | 25% | 1018.8 hPa | 0 mm | - | 965 W/m² | - |
| 1788294351 | 29.44° C | 25% | 1018.8 hPa | 0 mm | - | 972 W/m² | - |
| 1788294048 | 28.89° C | 25% | 1019 hPa | 0 mm | - | 973 W/m² | - |
| 1788293743 | 29.44° C | 25% | 1019.4 hPa | 0 mm | - | 978 W/m² | - |
| 1788293442 | 30° C | 23% | 1019.3 hPa | 0 mm | - | 983 W/m² | - |
| 1788293141 | 29.44° C | 23% | 1019.4 hPa | 0 mm | - | 985 W/m² | - |
| 1788292837 | 29.44° C | 24% | 1019.3 hPa | 0 mm | - | 988 W/m² | - |
| 1788292534 | 28.89° C | 24% | 1019.4 hPa | 0 mm | - | 990 W/m² | - |
| 1788292234 | 28.89° C | 24% | 1019.6 hPa | 0 mm | - | 992 W/m² | - |
| 1788291929 | 28.33° C | 25% | 1019.6 hPa | 0 mm | - | 995 W/m² | - |
| 1788291624 | 28.33° C | 25% | 1019.6 hPa | 0 mm | - | 993 W/m² | - |
| 1788291324 | 28.33° C | 27% | 1019.4 hPa | 0 mm | - | 993 W/m² | - |
| 1788291020 | 27.78° C | 26% | 1019.7 hPa | 0 mm | - | 988 W/m² | - |
| 1788290715 | 27.78° C | 29% | 1019.7 hPa | 0 mm | - | 989 W/m² | - |
| 1788290411 | 27.78° C | 29% | 1019.8 hPa | 0 mm | - | 983 W/m² | - |
| 1788290107 | 27.78° C | 29% | 1019.8 hPa | 0 mm | - | 981 W/m² | - |
| 1788289802 | 28.33° C | 29% | 1019.9 hPa | 0 mm | - | 979 W/m² | - |
| 1788289506 | 28.33° C | 29% | 1019.9 hPa | 0 mm | - | 973 W/m² | - |
| 1788289195 | 27.78° C | 31% | 1019.8 hPa | 0 mm | - | 962 W/m² | - |
| 1788288890 | 28.33° C | 33% | 1020 hPa | 0 mm | - | 959 W/m² | - |
| 1788288589 | 28.33° C | 30% | 1020.1 hPa | 0 mm | - | 957 W/m² | - |
| 1788288285 | 27.78° C | 32% | 1019.9 hPa | 0 mm | - | 952 W/m² | - |
* Rain latest hour (hover to see other rain measurements)
** Current wind speed in m/s (hover to see current wind gust speed)